CW9944 Porsgrunn NO current weather conditions

sailwx.info

Wind from 270 at 1 knots gusting 1

Air temperature 1.7° C
Dewpoint 0.4° C

Last reported at 2014-Nov-28 23:34 UTC.
Time now 2014-Nov-29 03:34 UTC

Location: N 59°07' E 009°39'.
View on Google Maps.

See reports from other nearby stations

  
Tides and Currents Weather Stations Pressure Air Temp Water Temp Dewpoint Dewpoint Depression Visibility Wind Speed Wind Dir Waves Ship Positions
date/time (UTC)wind fromknots sea level pressurealtimeterstation pressurevisibilityair tempwater tempwave heightnotes
2014-Nov-28 23:34 270 1 gusting 1 1.7
2014-Nov-28 23:14 270 0 gusting 2 1.7
2014-Nov-28 23:04 270 0 gusting 2 1.7
2014-Nov-28 22:54 270 1.7
2014-Nov-28 22:44 289 1.7
2014-Nov-28 22:34 315 1 gusting 2 1.7
2014-Nov-28 22:14 006 1.7
2014-Nov-28 22:04 338 1.7
2014-Nov-28 21:54 338 0 gusting 4 1.7
2014-Nov-28 21:44 292 1.7
2014-Nov-28 21:34 315 0 gusting 4 1.7
2014-Nov-28 21:14 318 2 gusting 2 1.7
2014-Nov-28 21:04 248 1 gusting 1 1.7
2014-Nov-28 20:54 328 2 gusting 4 1.7
2014-Nov-28 20:44 225 1.7
2014-Nov-28 20:34 292 1 gusting 1 1.7
2014-Nov-28 20:14 356 0 gusting 4 2.2
2014-Nov-28 20:04 292 5 gusting 6 2.2
2014-Nov-28 19:54 259 1 gusting 2 2.2
2014-Nov-28 19:44 292 0 gusting 4 2.2
2014-Nov-28 19:34 292 3 gusting 6 2.2
2014-Nov-28 19:14 248 9 gusting 11 2.2
2014-Nov-28 19:04 270 3 gusting 4 2.2
2014-Nov-28 18:54 248 4 gusting 4 2.2
2014-Nov-28 18:44 202 0 gusting 6 2.2
2014-Nov-28 18:34 225 4 gusting 5 2.2
2014-Nov-28 18:14 270 1 gusting 5 2.2
2014-Nov-28 18:04 248 3 gusting 5 2.2
2014-Nov-28 17:54 225 1 gusting 2 2.2
2014-Nov-28 17:44 235 0 gusting 4 2.2
2014-Nov-28 17:34 248 1 gusting 4 2.2
2014-Nov-28 17:14 293 1 gusting 2 2.2
2014-Nov-28 17:04 270 2 gusting 6 2.2
2014-Nov-28 16:54 180 2 gusting 2 1.7
2014-Nov-28 16:44 248 0 gusting 2 1.7
2014-Nov-28 16:34 292 0 gusting 2 1.7
2014-Nov-28 16:14 248 1.7
2014-Nov-28 16:04 270 1 gusting 1 1.7
2014-Nov-28 15:44 270 1.7
2014-Nov-28 15:34 248 4 gusting 6 1.7
2014-Nov-28 15:14 248 2 gusting 4 1.7
2014-Nov-28 15:04 270 4 gusting 6 1.7
2014-Nov-28 14:44 270 6 gusting 6 1.7
2014-Nov-28 14:34 260 6 gusting 6 1.7
2014-Nov-28 14:14 272 3 gusting 6 2.2
2014-Nov-28 14:04 292 1 gusting 5 1.7
2014-Nov-28 13:54 270 2 gusting 6 1.7
2014-Nov-28 13:44 322 0 gusting 2 1.7
2014-Nov-28 13:34 270 1 gusting 2 1.7
2014-Nov-28 13:14 1.7
2014-Nov-28 13:04 270 6 gusting 6 2.2
2014-Nov-28 12:44 338 2 gusting 5 2.2
2014-Nov-28 12:34 292 3 gusting 5 2.2
2014-Nov-28 12:14 270 1 gusting 2 2.2
2014-Nov-28 12:04 292 1 gusting 2 2.2
2014-Nov-28 11:54 248 0 gusting 2 2.2
2014-Nov-28 11:44 352 2.2
2014-Nov-28 11:34 270 0 gusting 1 2.2
2014-Nov-28 11:14 299 0 gusting 2 2.2
2014-Nov-28 11:04 270 1.7
2014-Nov-28 10:54 321 1 gusting 1 1.7
2014-Nov-28 10:44 249 1.7
2014-Nov-28 10:34 270 0 gusting 4 2.2
2014-Nov-28 10:14 270 2 gusting 5 1.7
2014-Nov-28 10:04 270 2 gusting 5 1.7
2014-Nov-28 09:54 266 4 gusting 6 1.7
2014-Nov-28 09:44 294 1 gusting 1 1.7
2014-Nov-28 09:34 315 0 gusting 4 1.7
2014-Nov-28 09:14 261 0 gusting 0 1.7
2014-Nov-28 09:04 315 0 gusting 2 1.7
2014-Nov-28 08:54 271 1 gusting 4 1.7
2014-Nov-28 08:44 292 0 gusting 2 1.7
2014-Nov-28 08:34 276 0 gusting 2 1.7
2014-Nov-28 08:14 258 0 gusting 6 1.7
2014-Nov-28 08:04 315 2 gusting 6 1.7
2014-Nov-28 07:54 248 3 gusting 4 1.7
2014-Nov-28 07:44 315 2 gusting 2 1.1
2014-Nov-28 07:34 315 0 gusting 5 1.1
2014-Nov-28 07:14 196 0 gusting 2 1.1
2014-Nov-28 07:04 248 1 gusting 4 1.1
2014-Nov-28 06:54 278 4 gusting 6 1.1
2014-Nov-28 06:44 248 1.1
2014-Nov-27 20:14 249 0.6
2014-Nov-27 20:04 249 0.6
2014-Nov-27 19:54 249 0.6
2014-Nov-27 19:44 249 0.6
2014-Nov-27 19:34 249 0.6
2014-Nov-27 19:14 249 0.6
2014-Nov-27 19:04 249 0.6
2014-Nov-27 18:54 249 0.6
2014-Nov-27 18:44 249 0.6
2014-Nov-27 18:34 248 0.6
2014-Nov-27 18:14 262 0 gusting 5 0.6
2014-Nov-27 18:04 240 0 gusting 6 0.6
2014-Nov-27 17:54 225 5 gusting 6 0.6
2014-Nov-27 17:44 225 1 gusting 2 0.6
2014-Nov-27 17:34 248 0 gusting 2 0.6
2014-Nov-27 17:14 294 10 gusting 10 0.6
2014-Nov-27 17:04 292 10 gusting 10 0.6
2014-Nov-27 16:54 292 10 gusting 10 0.6
2014-Nov-27 16:44 292 0 gusting 5 0.6
2014-Nov-27 16:34 226 4 gusting 4 1.1
2014-Nov-27 16:14 226 4 gusting 4 1.1
2014-Nov-27 16:04 226 4 gusting 4 1.1
2014-Nov-27 15:54 226 4 gusting 4 1.1
2014-Nov-27 15:44 226 4 gusting 4 1.1
2014-Nov-27 15:34 226 4 gusting 4 1.1
2014-Nov-27 15:14 226 4 gusting 4 1.1
2014-Nov-27 15:04 226 4 gusting 4 1.1
2014-Nov-27 14:54 226 4 gusting 4 1.1
2014-Nov-27 14:44 226 4 gusting 4 1.1
2014-Nov-27 14:34 226 4 gusting 4 1.1
2014-Nov-27 14:14 226 4 gusting 4 1.1
2014-Nov-27 14:04 226 4 gusting 4 1.1
2014-Nov-27 13:54 226 4 gusting 4 1.1
2014-Nov-27 13:44 226 4 gusting 4 1.1
2014-Nov-27 13:34 226 4 gusting 4 1.1
2014-Nov-27 13:14 248 1.1
2014-Nov-27 13:04 315 0 gusting 5 1.1
2014-Nov-27 12:54 270 0 gusting 5 1.1
2014-Nov-27 12:44 214 2 gusting 2 1.1
2014-Nov-27 12:34 158 1.1
2014-Nov-27 12:14 267 1.1
2014-Nov-27 12:04 292 0 gusting 2 1.1
2014-Nov-27 11:54 248 1 gusting 2 1.1
2014-Nov-27 11:44 262 1 gusting 1 1.1
2014-Nov-27 11:34 262 0 gusting 4 1.1
2014-Nov-27 11:14 227 1 gusting 4 0.6
2014-Nov-27 11:04 233 0.6
2014-Nov-27 10:54 248 0.6
2014-Nov-27 10:44 268 0.6
2014-Nov-27 10:34 248 3 gusting 5 0.6
2014-Nov-27 10:14 231 1 gusting 5 0.6
2014-Nov-27 10:04 248 0 gusting 1 0.6
2014-Nov-27 09:54 255 2 gusting 4 0.6
2014-Nov-27 09:44 270 0 gusting 4 0.6
2014-Nov-27 09:34 270 0.6
2014-Nov-27 09:14 248 4 gusting 4 0.6
2014-Nov-27 09:04 248 3 gusting 4 -0.0
2014-Nov-27 08:54 248 1 gusting 7 -0.0
2014-Nov-27 08:44 248 2 gusting 4 -0.0
2014-Nov-27 08:34 248 3 gusting 4 -0.0
2014-Nov-27 08:14 248 5 gusting 6 -0.0
2014-Nov-27 08:04 248 1 gusting 6 -0.0
2014-Nov-27 07:54 248 2 gusting 2 -0.0
2014-Nov-27 07:44 248 0 gusting 6 -0.0
2014-Nov-27 07:34 248 4 gusting 6 -0.0
2014-Nov-27 07:14 248 -0.0
2014-Nov-27 07:04 248 0 gusting 2 -0.0
2014-Nov-27 06:54 248 2 gusting 4 -0.0
2014-Nov-27 06:44 248 -0.0
2014-Nov-27 06:34 248 1 gusting 4 -0.0
2014-Nov-27 06:14 248 0 gusting 1 -0.0
2014-Nov-27 06:04 248 0 gusting 2 -0.0
2014-Nov-27 05:54 248 0 gusting 2 -0.0
2014-Nov-27 05:44 248 0 gusting 4 -0.0
2014-Nov-27 05:34 248 1 gusting 2 -0.0
2014-Nov-27 05:14 248 -0.0
2014-Nov-27 05:04 248 2 gusting 2 -0.0
2014-Nov-27 04:54 248 1 gusting 5 -0.0
2014-Nov-27 04:44 248 4 gusting 5 -0.0
2014-Nov-27 04:34 248 0 gusting 5 -0.0
2014-Nov-27 04:14 248 2 gusting 2 -0.0
2014-Nov-27 04:04 248 0 gusting 2 -0.0
2014-Nov-27 03:54 248 1 gusting 2 -0.0
2014-Nov-27 03:44 248 2 gusting 2 -0.0
2014-Nov-27 03:34 248 -0.0
2014-Nov-27 03:14 248 -0.0
2014-Nov-27 03:04 248 -0.0